| time (UTC) | temp F | wind direction | speed MPH | gust MPH | rain 1hr in | rain 24hr in | rain mn in | humidity % | barometer mb |
| 20260509214515 | 53 | 302 | 4.0 | 10.0 | 0.00 | 0.30 | 0.30 | 85 | 1008.2 |
| 20260509214021 | 53 | 285 | 4.0 | 7.0 | 0.00 | 0.30 | 0.30 | 86 | 1008.1 |
| 20260509213510 | 53 | 316 | 1.0 | 7.0 | 0.00 | 0.30 | 0.30 | 86 | 1008.1 |
| 20260509213017 | 53 | 224 | 1.0 | 7.0 | 0.00 | 0.30 | 0.30 | 86 | 1008.1 |
| 20260509212527 | 53 | 173 | 2.0 | 9.0 | 0.00 | 0.30 | 0.30 | 87 | 1008.2 |
| 20260509212015 | 52 | 283 | 5.0 | 9.0 | 0.00 | 0.30 | 0.30 | 88 | 1008.1 |
| 20260509211547 | 52 | 296 | 0.0 | 5.0 | 0.00 | 0.30 | 0.30 | 89 | 1008.1 |
| 20260509211009 | 52 | 278 | 1.0 | 5.0 | 0.00 | 0.30 | 0.30 | 89 | 1008.3 |
| 20260509210519 | 52 | 312 | 0.0 | 5.0 | 0.00 | 0.30 | 0.30 | 90 | 1008.2 |
| 20260509210005 | 52 | 294 | 1.0 | 4.0 | 0.00 | 0.30 | 0.30 | 90 | 1008.2 |
| 20260509205515 | 51 | 300 | 1.0 | 4.0 | 0.00 | 0.30 | 0.30 | 90 | 1008.3 |
| 20260509205021 | 51 | 295 | 1.0 | 4.0 | 0.00 | 0.30 | 0.30 | 91 | 1008.3 |
| 20260509204510 | 51 | 250 | 2.0 | 4.0 | 0.00 | 0.30 | 0.30 | 92 | 1008.3 |
| 20260509204015 | 51 | 158 | 0.0 | 6.0 | 0.00 | 0.30 | 0.30 | 92 | 1008.3 |
| 20260509203526 | 51 | 253 | 0.0 | 6.0 | 0.00 | 0.30 | 0.30 | 93 | 1008.3 |
| 20260509203022 | 50 | 298 | 1.0 | 6.0 | 0.00 | 0.30 | 0.30 | 93 | 1008.3 |
| 20260509202519 | 50 | 287 | 1.0 | 6.0 | 0.00 | 0.30 | 0.30 | 93 | 1008.5 |
| 20260509202004 | 50 | 328 | 0.0 | 3.0 | 0.00 | 0.30 | 0.30 | 93 | 1008.5 |
| 20260509201520 | 50 | 342 | 0.0 | 3.0 | 0.00 | 0.30 | 0.30 | 93 | 1008.5 |
| 20260509201021 | 50 | 30 | 0.0 | 5.0 | 0.00 | 0.30 | 0.30 | 93 | 1008.6 |
| 20260509200530 | 50 | 269 | 1.0 | 5.0 | 0.00 | 0.30 | 0.30 | 93 | 1008.5 |
| 20260509200013 | 50 | 335 | 0.0 | 3.0 | 0.00 | 0.30 | 0.30 | 93 | 1008.6 |
| 20260509195521 | 50 | 328 | 0.0 | 5.0 | 0.00 | 0.30 | 0.30 | 94 | 1008.6 |
| 20260509195020 | 50 | 71 | 0.0 | 5.0 | 0.00 | 0.30 | 0.30 | 94 | 1008.8 |
| 20260509194510 | 50 | 65 | 1.0 | 5.0 | 0.00 | 0.30 | 0.30 | 94 | 1008.8 |
| 20260509194016 | 50 | 51 | 0.0 | 4.0 | 0.00 | 0.30 | 0.30 | 94 | 1008.8 |
| 20260509193507 | 50 | 314 | 1.0 | 3.0 | 0.00 | 0.30 | 0.30 | 94 | 1008.9 |
| 20260509193012 | 50 | 315 | 0.0 | 4.0 | 0.01 | 0.30 | 0.30 | 94 | 1008.9 |
| 20260509192520 | 49 | 117 | 1.0 | 4.0 | 0.01 | 0.30 | 0.30 | 94 | 1008.9 |
| 20260509192009 | 49 | 6 | 0.0 | 4.0 | 0.01 | 0.30 | 0.30 | 94 | 1009.1 |
| 20260509191520 | 49 | 73 | 1.0 | 4.0 | 0.01 | 0.30 | 0.30 | 94 | 1009.1 |
| 20260509191027 | 49 | 1 | 0.0 | 5.0 | 0.01 | 0.30 | 0.30 | 94 | 1009.1 |
| 20260509190512 | 49 | 24 | 1.0 | 6.0 | 0.01 | 0.30 | 0.30 | 94 | 1009.1 |
| 20260509190023 | 49 | 136 | 1.0 | 6.0 | 0.01 | 0.30 | 0.30 | 94 | 1009.2 |
| 20260509185526 | 49 | 114 | 1.0 | 5.0 | 0.01 | 0.30 | 0.30 | 94 | 1009.3 |
| 20260509185013 | 49 | 59 | 1.0 | 5.0 | 0.01 | 0.30 | 0.30 | 94 | 1009.3 |
| 20260509184521 | 49 | 316 | 1.0 | 5.0 | 0.01 | 0.30 | 0.30 | 94 | 1009.4 |
| 20260509184006 | 49 | 23 | 1.0 | 5.0 | 0.01 | 0.30 | 0.30 | 94 | 1009.4 |
| 20260509183515 | 49 | 53 | 1.0 | 6.0 | 0.01 | 0.30 | 0.30 | 94 | 1009.4 |
| 20260509183023 | 49 | 262 | 1.0 | 6.0 | 0.00 | 0.28 | 0.28 | 94 | 1009.4 |
| 20260509182511 | 49 | 198 | 0.0 | 5.0 | 0.00 | 0.28 | 0.28 | 94 | 1009.3 |
| 20260509182021 | 49 | 64 | 1.0 | 5.0 | 0.00 | 0.28 | 0.28 | 94 | 1009.3 |
| 20260509181508 | 49 | 228 | 0.0 | 6.0 | 0.01 | 0.28 | 0.28 | 94 | 1009.3 |
| 20260509181014 | 49 | 94 | 1.0 | 6.0 | 0.01 | 0.28 | 0.28 | 94 | 1009.2 |
| 20260509180522 | 49 | 114 | 2.0 | 5.0 | 0.02 | 0.28 | 0.28 | 94 | 1009.3 |
| 20260509180009 | 49 | 86 | 0.0 | 7.0 | 0.02 | 0.28 | 0.28 | 94 | 1009.4 |
| 20260509175519 | 49 | 82 | 3.0 | 8.0 | 0.02 | 0.32 | 0.28 | 94 | 1009.4 |
| 20260509175019 | 49 | 82 | 1.0 | 5.0 | 0.03 | 0.32 | 0.28 | 94 | 1009.5 |
| 20260509174509 | 49 | 70 | 1.0 | 4.0 | 0.04 | 0.32 | 0.28 | 94 | 1009.5 |
| 20260509174014 | 49 | 46 | 1.0 | 7.0 | 0.04 | 0.32 | 0.28 | 95 | 1009.5 |
| 20260509173525 | 49 | 40 | 2.0 | 7.0 | 0.04 | 0.32 | 0.28 | 95 | 1009.4 |
| 20260509173033 | 49 | 172 | 1.0 | 7.0 | 0.05 | 0.32 | 0.28 | 95 | 1009.4 |
| 20260509172529 | 49 | 70 | 1.0 | 5.0 | 0.06 | 0.32 | 0.28 | 95 | 1009.4 |
| 20260509172019 | 49 | 64 | 0.0 | 6.0 | 0.06 | 0.32 | 0.28 | 95 | 1009.6 |
| 20260509171528 | 49 | 55 | 1.0 | 6.0 | 0.05 | 0.31 | 0.28 | 95 | 1009.5 |
| 20260509171010 | 49 | 141 | 1.0 | 5.0 | 0.06 | 0.31 | 0.28 | 95 | 1009.6 |
| 20260509170517 | 49 | 250 | 1.0 | 7.0 | 0.05 | 0.30 | 0.27 | 96 | 1009.7 |
| 20260509170006 | 48 | 70 | 1.0 | 7.0 | 0.06 | 0.30 | 0.27 | 96 | 1009.7 |
| 20260509165520 | 48 | 295 | 1.0 | 7.0 | 0.05 | 0.30 | 0.26 | 96 | 1009.9 |
| 20260509165019 | 48 | 4 | 0.0 | 7.0 | 0.05 | 0.30 | 0.26 | 96 | 1009.9 |
| 20260509164529 | 48 | 325 | 1.0 | 4.0 | 0.05 | 0.28 | 0.25 | 96 | 1009.9 |
| 20260509164015 | 48 | 51 | 1.0 | 5.0 | 0.05 | 0.28 | 0.25 | 96 | 1009.9 |
| 20260509163524 | 48 | 60 | 1.0 | 6.0 | 0.05 | 0.28 | 0.25 | 96 | 1009.9 |
| 20260509163014 | 47 | 30 | 1.0 | 7.0 | 0.05 | 0.28 | 0.24 | 96 | 1010.1 |
| 20260509162513 | 47 | 29 | 1.0 | 6.0 | 0.04 | 0.27 | 0.23 | 96 | 1010.1 |
| 20260509162013 | 47 | 259 | 1.0 | 6.0 | 0.05 | 0.27 | 0.23 | 96 | 1010.2 |
| 20260509161520 | 47 | 249 | 0.0 | 4.0 | 0.05 | 0.27 | 0.23 | 96 | 1010.3 |
| 20260509161028 | 47 | 73 | 0.0 | 4.0 | 0.04 | 0.26 | 0.22 | 96 | 1010.3 |
| 20260509160510 | 47 | 354 | 0.0 | 5.0 | 0.05 | 0.26 | 0.22 | 96 | 1010.4 |
| 20260509160017 | 47 | 222 | 1.0 | 5.0 | 0.04 | 0.25 | 0.21 | 96 | 1010.4 |
| 20260509155526 | 47 | 20 | 0.0 | 4.0 | 0.05 | 0.25 | 0.21 | 96 | 1010.6 |
| 20260509155014 | 47 | 26 | 0.0 | 3.0 | 0.05 | 0.25 | 0.21 | 96 | 1010.6 |
| 20260509154516 | 46 | 307 | 0.0 | 7.0 | 0.05 | 0.24 | 0.20 | 96 | 1010.7 |
| 20260509154021 | 46 | 75 | 1.0 | 7.0 | 0.05 | 0.24 | 0.20 | 96 | 1010.7 |
| 20260509153510 | 46 | 69 | 0.0 | 6.0 | 0.04 | 0.23 | 0.19 | 96 | 1010.8 |
| 20260509153020 | 46 | 89 | 1.0 | 7.0 | 0.05 | 0.23 | 0.19 | 96 | 1010.8 |
| 20260509152525 | 46 | 211 | 1.0 | 7.0 | 0.05 | 0.23 | 0.19 | 96 | 1010.9 |
| 20260509152014 | 46 | 63 | 0.0 | 3.0 | 0.04 | 0.22 | 0.18 | 96 | 1011.0 |
| 20260509151519 | 46 | 49 | 0.0 | 3.0 | 0.05 | 0.22 | 0.18 | 96 | 1011.1 |
| 20260509151022 | 45 | 21 | 0.0 | 3.0 | 0.05 | 0.22 | 0.18 | 96 | 1011.3 |
| 20260509150529 | 45 | 309 | 1.0 | 3.0 | 0.04 | 0.21 | 0.17 | 96 | 1011.2 |
| 20260509150012 | 44 | 290 | 0.0 | 3.0 | 0.04 | 0.21 | 0.17 | 96 | 1011.3 |
| 20260509145517 | 44 | 262 | 1.0 | 5.0 | 0.03 | 0.20 | 0.16 | 96 | 1011.4 |
| 20260509145022 | 44 | 280 | 3.0 | 5.0 | 0.03 | 0.20 | 0.16 | 96 | 1011.3 |
| 20260509144524 | 44 | 291 | 0.0 | 2.0 | 0.03 | 0.19 | 0.15 | 96 | 1011.3 |
| 20260509144010 | 44 | 290 | 0.0 | 3.0 | 0.03 | 0.19 | 0.15 | 96 | 1011.3 |
| 20260509143520 | 44 | 287 | 0.0 | 3.0 | 0.02 | 0.18 | 0.14 | 96 | 1011.2 |
| 20260509143025 | 44 | 293 | 0.0 | 2.0 | 0.02 | 0.18 | 0.14 | 96 | 1011.3 |
| 20260509142509 | 44 | 288 | 1.0 | 3.0 | 0.02 | 0.18 | 0.14 | 96 | 1011.3 |
| 20260509142013 | 44 | 300 | 1.0 | 3.0 | 0.03 | 0.18 | 0.14 | 96 | 1011.3 |
| 20260509141526 | 43 | 287 | 0.0 | 3.0 | 0.02 | 0.17 | 0.13 | 95 | 1011.3 |
| 20260509141013 | 43 | 295 | 1.0 | 3.0 | 0.02 | 0.17 | 0.13 | 95 | 1011.2 |
| 20260509140517 | 43 | 290 | 1.0 | 2.0 | 0.03 | 0.17 | 0.13 | 95 | 1011.1 |
| 20260509140022 | 43 | 298 | 0.0 | 3.0 | 0.03 | 0.17 | 0.13 | 95 | 1011.1 |
| 20260509135509 | 43 | 281 | 1.0 | 3.0 | 0.04 | 0.17 | 0.13 | 95 | 1011.2 |
| 20260509135017 | 43 | 292 | 0.0 | 2.0 | 0.04 | 0.17 | 0.13 | 95 | 1011.1 |
| 20260509134506 | 43 | 303 | 0.0 | 1.0 | 0.04 | 0.16 | 0.12 | 95 | 1011.2 |
| 20260509134013 | 43 | 303 | 0.0 | 1.0 | 0.05 | 0.16 | 0.12 | 95 | 1011.2 |
| 20260509133525 | 42 | 301 | 0.0 | 0.0 | 0.05 | 0.16 | 0.12 | 95 | 1011.3 |
| 20260509133010 | 42 | 301 | 0.0 | 2.0 | 0.06 | 0.16 | 0.12 | 95 | 1011.3 |
| 20260509132524 | 42 | 301 | 0.0 | 4.0 | 0.06 | 0.16 | 0.12 | 95 | 1011.4 |
| 20260509132004 | 42 | 300 | 0.0 | 4.0 | 0.06 | 0.15 | 0.11 | 95 | 1011.3 |
| 20260509131522 | 42 | 295 | 1.0 | 4.0 | 0.06 | 0.15 | 0.11 | 95 | 1011.4 |
| 20260509131019 | 42 | 297 | 0.0 | 0.0 | 0.06 | 0.15 | 0.11 | 94 | 1011.4 |
| 20260509130523 | 42 | 297 | 0.0 | 2.0 | 0.05 | 0.14 | 0.10 | 94 | 1011.4 |
| 20260509130016 | 42 | 297 | 0.0 | 2.0 | 0.05 | 0.14 | 0.10 | 94 | 1011.5 |
| 20260509125516 | 42 | 351 | 0.0 | 1.0 | 0.05 | 0.13 | 0.09 | 94 | 1011.4 |
| 20260509125017 | 42 | 352 | 0.0 | 1.0 | 0.05 | 0.13 | 0.09 | 94 | 1011.5 |
| 20260509124525 | 42 | 355 | 0.0 | 0.0 | 0.04 | 0.12 | 0.08 | 94 | 1011.4 |
| 20260509124010 | 42 | 301 | 0.0 | 2.0 | 0.03 | 0.11 | 0.07 | 93 | 1011.5 |
| 20260509123521 | 42 | 300 | 0.0 | 2.0 | 0.04 | 0.11 | 0.07 | 94 | 1011.5 |
| 20260509123026 | 42 | 98 | 0.0 | 2.0 | 0.03 | 0.10 | 0.06 | 93 | 1011.6 |
| 20260509122514 | 42 | 79 | 1.0 | 2.0 | 0.03 | 0.10 | 0.06 | 94 | 1011.5 |
| 20260509121529 | 42 | 340 | 0.0 | 1.0 | 0.02 | 0.09 | 0.05 | 93 | 1011.5 |
| 20260509121027 | 41 | 301 | 0.0 | 3.0 | 0.02 | 0.09 | 0.05 | 93 | 1011.5 |
| 20260509120528 | 42 | 304 | 1.0 | 3.0 | 0.02 | 0.09 | 0.05 | 93 | 1011.5 |
| 20260509120025 | 41 | 94 | 0.0 | 2.0 | 0.02 | 0.09 | 0.05 | 93 | 1011.5 |
| 20260509115526 | 41 | 66 | 0.0 | 1.0 | 0.01 | 0.08 | 0.04 | 93 | 1011.6 |
| 20260509115025 | 41 | 32 | 0.0 | 1.0 | 0.01 | 0.08 | 0.04 | 93 | 1011.5 |
| 20260509114525 | 41 | 32 | 0.0 | 1.0 | 0.01 | 0.08 | 0.04 | 93 | 1011.5 |
| 20260509114027 | 41 | 86 | 0.0 | 1.0 | 0.01 | 0.08 | 0.04 | 93 | 1011.6 |
| 20260509113525 | 41 | 86 | 0.0 | 2.0 | 0.00 | 0.07 | 0.03 | 93 | 1011.5 |
| 20260509113025 | 41 | 342 | 0.0 | 2.0 | 0.00 | 0.07 | 0.03 | 93 | 1011.5 |
| 20260509112523 | 41 | 79 | 0.0 | 2.0 | 0.01 | 0.07 | 0.03 | 93 | 1011.5 |
| 20260509112023 | 40 | 78 | 0.0 | 2.0 | 0.01 | 0.07 | 0.03 | 92 | 1011.6 |
| 20260509111523 | 40 | 78 | 0.0 | 2.0 | 0.01 | 0.07 | 0.03 | 92 | 1011.6 |
| 20260509111022 | 40 | 245 | 0.0 | 1.0 | 0.01 | 0.07 | 0.03 | 92 | 1011.6 |
| 20260509110524 | 40 | 245 | 0.0 | 2.0 | 0.01 | 0.07 | 0.03 | 92 | 1011.6 |
| 20260509110022 | 40 | 245 | 0.0 | 2.0 | 0.01 | 0.07 | 0.03 | 92 | 1011.4 |
| 20260509105524 | 40 | 101 | 0.0 | 2.0 | 0.01 | 0.07 | 0.03 | 92 | 1011.4 |
| 20260509105021 | 40 | 5 | 0.0 | 2.0 | 0.01 | 0.07 | 0.03 | 92 | 1011.4 |
| 20260509104522 | 40 | 13 | 0.0 | 2.0 | 0.01 | 0.07 | 0.03 | 92 | 1011.4 |
| 20260509104021 | 40 | 143 | 0.0 | 5.0 | 0.01 | 0.07 | 0.03 | 92 | 1011.3 |
| 20260509103521 | 40 | 317 | 1.0 | 5.0 | 0.01 | 0.07 | 0.03 | 92 | 1011.3 |
| 20260509103021 | 40 | 96 | 0.0 | 4.0 | 0.02 | 0.07 | 0.03 | 92 | 1011.2 |
| 20260509102521 | 40 | 309 | 0.0 | 4.0 | 0.01 | 0.06 | 0.02 | 92 | 1011.3 |
| 20260509102019 | 40 | 301 | 1.0 | 4.0 | 0.01 | 0.06 | 0.02 | 92 | 1011.2 |
| 20260509101518 | 41 | 111 | 0.0 | 1.0 | 0.01 | 0.06 | 0.02 | 92 | 1011.2 |
| 20260509101017 | 40 | 112 | 0.0 | 1.0 | 0.01 | 0.06 | 0.02 | 92 | 1011.4 |
| 20260509100516 | 40 | 111 | 0.0 | 1.0 | 0.01 | 0.06 | 0.02 | 91 | 1011.6 |
| 20260509100017 | 40 | 111 | 0.0 | 1.0 | 0.01 | 0.06 | 0.02 | 91 | 1011.6 |
| 20260509095516 | 40 | 111 | 0.0 | 1.0 | 0.02 | 0.06 | 0.02 | 91 | 1011.8 |
| 20260509095015 | 40 | 95 | 0.0 | 0.0 | 0.02 | 0.06 | 0.02 | 90 | 1011.8 |
| 20260509094515 | 40 | 94 | 0.0 | 0.0 | 0.02 | 0.06 | 0.02 | 90 | 1011.8 |
| 20260509094015 | 40 | 95 | 0.0 | 0.0 | 0.02 | 0.06 | 0.02 | 90 | 1011.8 |
| 20260509093517 | 40 | 95 | 0.0 | 0.0 | 0.02 | 0.06 | 0.02 | 89 | 1011.8 |
| 20260509093015 | 40 | 94 | 0.0 | 1.0 | 0.01 | 0.05 | 0.01 | 89 | 1011.8 |
| 20260509092514 | 40 | 29 | 0.0 | 4.0 | 0.01 | 0.05 | 0.01 | 88 | 1011.7 |
| 20260509092012 | 40 | 82 | 0.0 | 5.0 | 0.01 | 0.05 | 0.01 | 88 | 1011.6 |
| 20260509091520 | 40 | 312 | 0.0 | 2.0 | 0.01 | 0.05 | 0.01 | 87 | 1011.7 |
| 20260509091011 | 40 | 1 | 0.0 | 4.0 | 0.01 | 0.05 | 0.01 | 86 | 1011.8 |
| 20260509090511 | 41 | 326 | 0.0 | 3.0 | 0.01 | 0.05 | 0.01 | 85 | 1011.8 |
| 20260509090009 | 41 | 253 | 0.0 | 5.0 | 0.01 | 0.05 | 0.01 | 84 | 1011.9 |
| 20260509085508 | 41 | 20 | 1.0 | 5.0 | 0.00 | 0.04 | 0.00 | 83 | 1011.8 |
| 20260509085007 | 41 | 58 | 1.0 | 5.0 | 0.00 | 0.04 | 0.00 | 81 | 1011.8 |
| 20260509084516 | 42 | 72 | 1.0 | 6.0 | 0.00 | 0.04 | 0.00 | 79 | 1011.9 |
| 20260509084005 | 42 | 68 | 0.0 | 5.0 | 0.00 | 0.04 | 0.00 | 76 | 1011.9 |
| 20260509083504 | 43 | 71 | 0.0 | 5.0 | 0.00 | 0.04 | 0.00 | 73 | 1012.0 |
| 20260509083003 | 43 | 60 | 1.0 | 4.0 | 0.00 | 0.04 | 0.00 | 70 | 1012.1 |
| 20260509082503 | 44 | 72 | 1.0 | 6.0 | 0.00 | 0.04 | 0.00 | 68 | 1012.1 |
| 20260509082002 | 44 | 116 | 0.0 | 7.0 | 0.00 | 0.04 | 0.00 | 66 | 1012.1 |
| 20260509081502 | 44 | 72 | 2.0 | 7.0 | 0.00 | 0.04 | 0.00 | 65 | 1012.1 |
| 20260509081002 | 44 | 75 | 3.0 | 8.0 | 0.00 | 0.04 | 0.00 | 65 | 1012.1 |
| 20260509080501 | 45 | 78 | 2.0 | 12.0 | 0.00 | 0.04 | 0.00 | 64 | 1012.0 |
| 20260509080001 | 45 | 46 | 6.0 | 12.0 | 0.00 | 0.04 | 0.00 | 64 | 1011.9 |
| 20260509075600 | 45 | 42 | 3.0 | 9.0 | 0.00 | 0.04 | 0.00 | 65 | 1011.9 |
| 20260509075100 | 44 | 68 | 3.0 | 9.0 | 0.00 | 0.04 | 0.00 | 65 | 1011.8 |
| 20260509074600 | 44 | 65 | 3.0 | 9.0 | 0.00 | 0.04 | 0.00 | 65 | 1011.8 |
| 20260509074059 | 44 | 91 | 2.0 | 10.0 | 0.00 | 0.04 | 0.00 | 65 | 1011.8 |
| 20260509073558 | 44 | 79 | 3.0 | 10.0 | 0.00 | 0.04 | 0.00 | 65 | 1012.0 |
| 20260509073206 | 44 | 86 | 3.0 | 10.0 | 0.00 | 0.04 | 0.00 | 67 | 1012.0 |
| 20260509072556 | 43 | 84 | 1.0 | 4.0 | 0.00 | 0.04 | 0.00 | 67 | 1011.9 |
| 20260509072055 | 43 | 82 | 0.0 | 5.0 | 0.00 | 0.04 | 0.00 | 68 | 1011.9 |
| 20260509071555 | 43 | 152 | 0.0 | 5.0 | 0.00 | 0.04 | 0.00 | 68 | 1011.9 |
| 20260509071054 | 43 | 287 | 0.0 | 2.0 | 0.00 | 0.04 | 0.00 | 68 | 1012.0 |
| 20260509070554 | 43 | 36 | 0.0 | 3.0 | 0.00 | 0.04 | 0.00 | 67 | 1012.0 |
| 20260509070054 | 43 | 91 | 1.0 | 3.0 | 0.00 | 0.04 | 0.00 | 66 | 1012.0 |
| 20260509065552 | 42 | 98 | 0.0 | 3.0 | 0.00 | 0.04 | 0.00 | 67 | 1012.0 |
| 20260509065052 | 43 | 44 | 0.0 | 3.0 | 0.00 | 0.04 | 0.00 | 66 | 1012.1 |
| 20260509064552 | 43 | 82 | 0.0 | 5.0 | 0.00 | 0.04 | 0.00 | 65 | 1012.0 |
| 20260509064051 | 43 | 82 | 1.0 | 6.0 | 0.00 | 0.04 | 0.00 | 64 | 1012.0 |
| 20260509063551 | 42 | 84 | 3.0 | 6.0 | 0.00 | 0.04 | 0.00 | 65 | 1012.0 |
| 20260509063050 | 41 | 80 | 2.0 | 4.0 | 0.00 | 0.04 | 0.00 | 68 | 1012.1 |
| 20260509062549 | 41 | 95 | 0.0 | 1.0 | 0.00 | 0.04 | 0.00 | 70 | 1012.2 |
| 20260509062047 | 41 | 94 | 1.0 | 1.0 | 0.00 | 0.04 | 0.00 | 71 | 1012.2 |
| 20260509061554 | 40 | 94 | 0.0 | 1.0 | 0.00 | 0.04 | 0.00 | 70 | 1012.3 |
| 20260509061046 | 40 | 94 | 0.0 | 1.0 | 0.00 | 0.04 | 0.00 | 71 | 1012.4 |
| 20260509060545 | 40 | 94 | 0.0 | 1.0 | 0.00 | 0.04 | 0.00 | 73 | 1012.3 |
| 20260509060045 | 40 | 94 | 0.0 | 2.0 | 0.00 | 0.04 | 0.00 | 72 | 1012.4 |
| 20260509055544 | 40 | 95 | 1.0 | 2.0 | 0.00 | 0.04 | 0.00 | 72 | 1012.4 |
| 20260509055044 | 40 | 95 | 1.0 | 2.0 | 0.00 | 0.04 | 0.00 | 72 | 1012.5 |
| 20260509054546 | 40 | 95 | 1.0 | 1.0 | 0.00 | 0.04 | 0.00 | 73 | 1012.5 |
| 20260509054043 | 40 | 94 | 0.0 | 1.0 | 0.00 | 0.04 | 0.00 | 71 | 1012.6 |
| 20260509053543 | 40 | 96 | 0.0 | 1.0 | 0.00 | 0.04 | 0.00 | 72 | 1012.8 |
| 20260509053046 | 41 | 96 | 0.0 | 1.0 | 0.00 | 0.04 | 0.00 | 70 | 1012.8 |
| 20260509052543 | 41 | 96 | 0.0 | 1.0 | 0.00 | 0.04 | 0.00 | 71 | 1012.8 |
| 20260509052038 | 41 | 83 | 0.0 | 1.0 | 0.00 | 0.04 | 0.00 | 70 | 1012.8 |
| 20260509051540 | 41 | 84 | 0.0 | 1.0 | 0.00 | 0.04 | 0.00 | 70 | 1012.8 |
| 20260509051038 | 41 | 84 | 0.0 | 2.0 | 0.00 | 0.04 | 0.00 | 68 | 1012.8 |
| 20260509050537 | 41 | 84 | 0.0 | 2.0 | 0.00 | 0.04 | 0.00 | 70 | 1012.6 |
| 20260509050039 | 41 | 94 | 1.0 | 2.0 | 0.00 | 0.04 | 0.00 | 71 | 1012.7 |
| 20260509045535 | 41 | 91 | 1.0 | 1.0 | 0.00 | 0.04 | 0.00 | 72 | 1013.0 |
| 20260509045039 | 41 | 88 | 0.0 | 1.0 | 0.00 | 0.04 | 0.00 | 72 | 1012.9 |
| 20260509044536 | 41 | 87 | 0.0 | 1.0 | 0.00 | 0.04 | 0.00 | 73 | 1012.9 |
| 20260509044035 | 42 | 87 | 0.0 | 1.0 | 0.00 | 0.04 | 0.00 | 71 | 1013.0 |
| 20260509043536 | 42 | 88 | 1.0 | 1.0 | 0.00 | 0.04 | 0.00 | 71 | 1012.9 |
| 20260509043042 | 42 | 87 | 0.0 | 2.0 | 0.00 | 0.04 | 0.00 | 71 | 1012.8 |
| 20260509042531 | 43 | 88 | 0.0 | 2.0 | 0.00 | 0.04 | 0.00 | 70 | 1012.9 |
| 20260509042029 | 43 | 98 | 1.0 | 2.0 | 0.00 | 0.04 | 0.00 | 68 | 1012.8 |
| 20260509041529 | 43 | 81 | 0.0 | 2.0 | 0.00 | 0.04 | 0.00 | 67 | 1012.8 |
| 20260509041029 | 43 | 64 | 1.0 | 3.0 | 0.00 | 0.04 | 0.00 | 67 | 1012.8 |
| 20260509040526 | 43 | 84 | 1.0 | 2.0 | 0.00 | 0.04 | 0.00 | 68 | 1012.9 |
| 20260509040025 | 43 | 91 | 1.0 | 2.0 | 0.00 | 0.04 | 0.00 | 69 | 1012.9 |
| 20260509035525 | 43 | 90 | 0.0 | 1.0 | 0.00 | 0.04 | 0.04 | 70 | 1012.8 |
| 20260509035024 | 43 | 91 | 0.0 | 1.0 | 0.00 | 0.04 | 0.04 | 70 | 1012.8 |
| 20260509034525 | 43 | 91 | 0.0 | 2.0 | 0.00 | 0.04 | 0.04 | 69 | 1012.8 |
| 20260509034024 | 43 | 91 | 1.0 | 2.0 | 0.00 | 0.04 | 0.04 | 69 | 1012.8 |
| 20260509033524 | 43 | 86 | 1.0 | 2.0 | 0.00 | 0.04 | 0.04 | 69 | 1012.8 |
| 20260509033025 | 43 | 79 | 1.0 | 2.0 | 0.00 | 0.04 | 0.04 | 69 | 1012.8 |
| 20260509032525 | 43 | 89 | 1.0 | 2.0 | 0.00 | 0.04 | 0.04 | 69 | 1012.8 |
| 20260509032024 | 43 | 87 | 1.0 | 2.0 | 0.00 | 0.04 | 0.04 | 69 | 1012.8 |
| 20260509031523 | 43 | 87 | 1.0 | 2.0 | 0.00 | 0.04 | 0.04 | 69 | 1012.9 |
| 20260509031024 | 43 | 96 | 1.0 | 2.0 | 0.00 | 0.04 | 0.04 | 70 | 1012.9 |
| 20260509030526 | 43 | 98 | 0.0 | 1.0 | 0.00 | 0.04 | 0.04 | 69 | 1013.0 |
| 20260509030032 | 43 | 98 | 1.0 | 1.0 | 0.00 | 0.04 | 0.04 | 72 | 1012.9 |
| 20260509025522 | 43 | 98 | 0.0 | 1.0 | 0.00 | 0.04 | 0.04 | 71 | 1012.9 |
| 20260509025023 | 43 | 97 | 0.0 | 1.0 | 0.00 | 0.04 | 0.04 | 70 | 1012.9 |
| 20260509024522 | 43 | 98 | 1.0 | 1.0 | 0.00 | 0.04 | 0.04 | 71 | 1012.9 |
| 20260509024022 | 43 | 98 | 1.0 | 1.0 | 0.00 | 0.04 | 0.04 | 72 | 1013.0 |
| 20260509023522 | 43 | 98 | 0.0 | 1.0 | 0.00 | 0.04 | 0.04 | 71 | 1013.0 |
| 20260509023025 | 42 | 97 | 1.0 | 1.0 | 0.00 | 0.04 | 0.04 | 72 | 1013.1 |
| 20260509022523 | 42 | 98 | 0.0 | 1.0 | 0.00 | 0.04 | 0.04 | 72 | 1013.0 |
| 20260509022022 | 42 | 98 | 0.0 | 1.0 | 0.00 | 0.04 | 0.04 | 73 | 1013.0 |
| 20260509021523 | 42 | 98 | 1.0 | 1.0 | 0.00 | 0.04 | 0.04 | 72 | 1013.0 |
| 20260509021024 | 42 | 98 | 1.0 | 2.0 | 0.00 | 0.04 | 0.04 | 72 | 1013.1 |
| 20260509020523 | 41 | 98 | 1.0 | 2.0 | 0.00 | 0.04 | 0.04 | 72 | 1013.0 |
| 20260509020020 | 41 | 96 | 1.0 | 2.0 | 0.00 | 0.04 | 0.04 | 72 | 1012.9 |
| 20260509015522 | 41 | 96 | 2.0 | 2.0 | 0.00 | 0.04 | 0.04 | 71 | 1012.9 |
| 20260509015020 | 41 | 96 | 1.0 | 2.0 | 0.00 | 0.04 | 0.04 | 72 | 1012.8 |
| 20260509014519 | 41 | 96 | 1.0 | 1.0 | 0.00 | 0.04 | 0.04 | 73 | 1012.8 |
| 20260509014018 | 41 | 96 | 1.0 | 2.0 | 0.00 | 0.04 | 0.04 | 71 | 1012.7 |
| 20260509013521 | 41 | 96 | 1.0 | 2.0 | 0.00 | 0.04 | 0.04 | 70 | 1012.6 |
| 20260509013039 | 42 | 97 | 2.0 | 2.0 | 0.00 | 0.04 | 0.04 | 70 | 1012.6 |
| 20260509012517 | 42 | 98 | 1.0 | 2.0 | 0.00 | 0.04 | 0.04 | 70 | 1012.5 |
| 20260509012016 | 41 | 98 | 1.0 | 2.0 | 0.00 | 0.04 | 0.04 | 71 | 1012.5 |
| 20260509011513 | 41 | 93 | 1.0 | 2.0 | 0.00 | 0.04 | 0.04 | 73 | 1012.4 |
| 20260509011018 | 42 | 93 | 2.0 | 2.0 | 0.00 | 0.04 | 0.04 | 73 | 1012.4 |
| 20260509010524 | 42 | 93 | 1.0 | 2.0 | 0.00 | 0.04 | 0.04 | 72 | 1012.3 |
| 20260509010017 | 42 | 93 | 1.0 | 2.0 | 0.00 | 0.04 | 0.04 | 73 | 1012.3 |
| 20260509005520 | 42 | 93 | 1.0 | 2.0 | 0.00 | 0.04 | 0.04 | 72 | 1012.1 |
| 20260509005028 | 42 | 93 | 2.0 | 2.0 | 0.00 | 0.04 | 0.04 | 70 | 1012.0 |
| 20260509004532 | 42 | 93 | 1.0 | 2.0 | 0.00 | 0.04 | 0.04 | 71 | 1011.9 |
| 20260509004018 | 42 | 93 | 1.0 | 2.0 | 0.00 | 0.04 | 0.04 | 72 | 1011.8 |
| 20260509003506 | 42 | 94 | 1.0 | 2.0 | 0.00 | 0.04 | 0.04 | 71 | 1011.7 |
| 20260509003012 | 43 | 93 | 1.0 | 1.0 | 0.00 | 0.04 | 0.04 | 70 | 1011.7 |
| 20260509002507 | 43 | 84 | 1.0 | 1.0 | 0.00 | 0.04 | 0.04 | 69 | 1011.6 |
| 20260509002014 | 44 | 69 | 1.0 | 1.0 | 0.00 | 0.04 | 0.04 | 68 | 1011.7 |
| 20260509001524 | 44 | 70 | 1.0 | 1.0 | 0.00 | 0.04 | 0.04 | 67 | 1011.5 |
| 20260509001013 | 45 | 57 | 0.0 | 1.0 | 0.00 | 0.04 | 0.04 | 65 | 1011.5 |
| 20260509000522 | 46 | 57 | 0.0 | 1.0 | 0.00 | 0.04 | 0.04 | 63 | 1011.5 |
| 20260509000008 | 48 | 307 | 0.0 | 1.0 | 0.00 | 0.04 | 0.04 | 58 | 1011.4 |
| 20260508235522 | 49 | 293 | 0.0 | 0.0 | 0.00 | 0.04 | 0.04 | 55 | 1011.4 |
| 20260508235019 | 49 | 293 | 0.0 | 1.0 | 0.00 | 0.04 | 0.04 | 53 | 1011.3 |
| 20260508234510 | 50 | 294 | 0.0 | 2.0 | 0.00 | 0.04 | 0.04 | 54 | 1011.2 |
| 20260508234015 | 50 | 153 | 0.0 | 3.0 | 0.00 | 0.04 | 0.04 | 52 | 1011.2 |
| 20260508233526 | 50 | 305 | 0.0 | 4.0 | 0.00 | 0.04 | 0.04 | 54 | 1011.1 |
| 20260508233012 | 50 | 269 | 0.0 | 4.0 | 0.00 | 0.04 | 0.04 | 53 | 1011.2 |
| 20260508232523 | 51 | 293 | 0.0 | 4.0 | 0.00 | 0.04 | 0.04 | 55 | 1011.1 |
| 20260508232011 | 51 | 302 | 0.0 | 4.0 | 0.00 | 0.04 | 0.04 | 57 | 1011.1 |
| 20260508231522 | 51 | 302 | 0.0 | 4.0 | 0.00 | 0.04 | 0.04 | 54 | 1011.1 |
| 20260508231009 | 50 | 152 | 0.0 | 5.0 | 0.00 | 0.04 | 0.04 | 57 | 1011.1 |
| 20260508230517 | 50 | 281 | 2.0 | 8.0 | 0.00 | 0.04 | 0.04 | 57 | 1011.2 |
| 20260508225512 | 49 | 295 | 4.0 | 13.0 | 0.00 | 0.04 | 0.04 | 57 | 1011.0 |
| 20260508225017 | 49 | 294 | 7.0 | 13.0 | 0.00 | 0.04 | 0.04 | 56 | 1011.0 |
| 20260508224507 | 49 | 283 | 6.0 | 12.0 | 0.00 | 0.04 | 0.04 | 56 | 1011.0 |
| 20260508224014 | 50 | 308 | 4.0 | 10.0 | 0.00 | 0.04 | 0.04 | 58 | 1011.0 |
| 20260508223526 | 49 | 276 | 5.0 | 10.0 | 0.00 | 0.04 | 0.04 | 58 | 1011.1 |
| 20260508223019 | 50 | 289 | 6.0 | 10.0 | 0.00 | 0.04 | 0.04 | 60 | 1011.0 |
| 20260508222524 | 50 | 301 | 4.0 | 12.0 | 0.00 | 0.04 | 0.04 | 62 | 1011.1 |
| 20260508222010 | 49 | 307 | 5.0 | 12.0 | 0.00 | 0.04 | 0.04 | 60 | 1011.0 |
| 20260508221521 | 50 | 287 | 4.0 | 10.0 | 0.00 | 0.04 | 0.04 | 58 | 1011.1 |
| 20260508221008 | 50 | 312 | 6.0 | 11.0 | 0.00 | 0.04 | 0.04 | 60 | 1011.0 |
| 20260508220518 | 49 | 288 | 4.0 | 9.0 | 0.00 | 0.04 | 0.04 | 63 | 1011.0 |
| 20260508220020 | 49 | 281 | 4.0 | 7.0 | 0.00 | 0.04 | 0.04 | 61 | 1010.9 |
| 20260508215512 | 49 | 301 | 3.0 | 13.0 | 0.00 | 0.04 | 0.04 | 62 | 1010.9 |
| 20260508215018 | 49 | 291 | 4.0 | 13.0 | 0.00 | 0.04 | 0.04 | 63 | 1011.0 |